Terug naar catalogus

HAWK-12B

ActiefWetenschapSSO
NORAD 64622·PAYLOAD·🇺🇸 United States

Gelanceerd Jun 26, 2025 vanaf Rocket Lab Launch Complex 1

Loading…

Volgende Passages (komende 24 uur)

TLE

VersSource: Space-Track

Epoch: Sep 14, 2026, 11:07 UTC

1 64622U 25138B   26257.46370201  .00002822  00000-0  13880-3 0  9991
2 64622  97.4513 259.2392 0012707 179.3535 180.7718 15.18774570 67418

Volg HAWK-12B in realtime met AllMySat

Download on the App Store